This is the latest recevied weather packets stored in our database for station/object W7TTE. If no packets are shown the sender has not sent any weather packets the latest 10 day(s).
| Time | Temp. | Humidity | Pressure | Rain* | Wind** | Luminosity | Snow |
|---|---|---|---|---|---|---|---|
| 1777926368 | 23.89° C | 43% | 1015.4 hPa | 0 mm | - | 364 W/m² | - |
| 1777926065 | 23.33° C | 43% | 1015.5 hPa | 0 mm | - | 333 W/m² | - |
| 1777925763 | 23.33° C | 43% | 1015.4 hPa | 0 mm | - | 391 W/m² | - |
| 1777925460 | 23.33° C | 43% | 1015.6 hPa | 0 mm | - | 498 W/m² | - |
| 1777925156 | 23.89° C | 43% | 1015.5 hPa | 0 mm | - | 392 W/m² | - |
| 1777924853 | 23.33° C | 43% | 1015.4 hPa | 0 mm | - | 368 W/m² | - |
| 1777924549 | 23.33° C | 44% | 1015.4 hPa | 0 mm | - | 354 W/m² | - |
| 1777924246 | 22.78° C | 45% | 1015.3 hPa | 0 mm | - | 354 W/m² | - |
| 1777923943 | 22.78° C | 46% | 1015.3 hPa | 0 mm | - | 286 W/m² | - |
| 1777923638 | 22.78° C | 46% | 1015.4 hPa | 0 mm | - | 282 W/m² | - |
| 1777923335 | 22.78° C | 45% | 1015.5 hPa | 0 mm | - | 290 W/m² | - |
| 1777923034 | 22.78° C | 45% | 1015.6 hPa | 0 mm | - | 314 W/m² | - |
| 1777922732 | 23.33° C | 45% | 1015.4 hPa | 0 mm | - | 314 W/m² | - |
| 1777922429 | 22.78° C | 45% | 1015.1 hPa | 0 mm | - | 276 W/m² | - |
| 1777922127 | 22.78° C | 45% | 1015.4 hPa | 0 mm | - | 270 W/m² | - |
| 1777921823 | 22.78° C | 46% | 1015.2 hPa | 0 mm | - | 261 W/m² | - |
| 1777921519 | 22.78° C | 46% | 1015.2 hPa | 0 mm | - | 263 W/m² | - |
| 1777921215 | 22.78° C | 45% | 1015.4 hPa | 0 mm | - | 229 W/m² | - |
| 1777920912 | 22.78° C | 45% | 1015.5 hPa | 0 mm | - | 255 W/m² | - |
| 1777920609 | 22.78° C | 44% | 1015.6 hPa | 0 mm | - | 290 W/m² | - |
| 1777920304 | 22.22° C | 44% | 1015.5 hPa | 0 mm | - | 304 W/m² | - |
| 1777920000 | 22.22° C | 46% | 1015.5 hPa | 0 mm | - | 309 W/m² | - |
| 1777919697 | 22.22° C | 45% | 1015.4 hPa | 0 mm | - | 306 W/m² | - |
| 1777919395 | 22.22° C | 45% | 1015.3 hPa | 0 mm | - | 300 W/m² | - |
| 1777919092 | 22.22° C | 45% | 1015.3 hPa | 0 mm | - | 334 W/m² | - |
* Rain latest hour (hover to see other rain measurements)
** Current wind speed in m/s (hover to see current wind gust speed)